Auction House Details

Heritage Auctions

Auction House Name Heritage Auctions
Site URL https://www.HA.com/Books/?type=americanaexchange-C1A4-042010
About Us Heritage Auctions is the world's largest collectibles auctioneer. Our 700,000+ bidder-members are a testament to our reputation for professional business practices and unprecedented knowledge in the field of collectibles. Our mission is to provide the Internet's most indispensable trading platform and source of information for serious collectors, investors, and dealers.Heritage, established in 1976, offers a wide ranging selection of Rare Books & Manuscripts, Fine and Rare Wine, US & World Coins, Currency, Fine & Decorative Art, Western Art, Illustration Art, Comics & Comic Art, Movie Posters, Entertainment Memorabilia, Jewelry & Timepieces, Sports Collectibles, Historical & Political Memorabilia, American Indian Art, Air & Space Memorabilia, Militaria Memorabilia - Arms and Civil War, Vintage & Contemporary Photography, Natural History Specimens and more.
Who do I contact if I have questions? Tom Slater - Director of Americana Auctions; Sandra Palomino - Director, Historical Manuscripts; James Gannon - Director of Rare Books; Joe Fay - Manager of Rare Books; Dennis Lowe - Director, Civil War
City Dallas
State Texas
Country United States
Zipcode 75261
Contact Number 800-872-6467
Buyer's Fee Buyer's Premiums between 15% and 25%, depending on category: Posters, comics = 20%, books 25%
Consigner's Fee

AUCTION LIST

03/19/2022 - 03/20/2022, Inaugural J. Doyle Dewitt Collection of Americana & Political Signature® Auction, #6246
03/20/2022 - 03/21/2022, Comics, Animation and Art Weekly - bidstart 3/13, #122212
03/20/2022 - 03/20/2022, Movie Posters Weekly - bidstart 3/13, #162212
03/20/2022 - 03/20/2022, Sports Collectibles Weekly - Bidstart 3/6, #152212
03/22/2022 - 03/22/2022, US Currency Weekly - bidstart 3/15, #142212
03/22/2022 - 03/22/2022, World Currency Weekly - bidstart 3/15, #282212
03/22/2022 - 03/22/2022, Tuesday Video Games and Playing Cards - bidstart 3/15, #312212
03/23/2022 - 03/23/2022, Wednesday Comic Art & Animation Select Auction - bidstart 3/16, #322212
03/26/2022 - 03/26/2022, Sports Showcase Auction, #60018
03/27/2022 - 03/28/2022, Comics, Animation and Art Weekly - bidstart 3/20, #122213
03/27/2022 - 03/27/2022, Movie Posters Weekly - bidstart 3/20, #162213
03/27/2022 - 03/27/2022, Sports Collectibles Weekly - Bidstart 3/13, #152213
03/29/2022 - 03/29/2022, US Currency Weekly - bidstart 3/22, #142213
03/29/2022 - 03/29/2022, World Currency Weekly - bidstart 3/22, #282213
03/29/2022 - 03/29/2022, Tuesday Video Games and Playing Cards - bidstart 3/22, #312213
03/30/2022 - 03/30/2022, Wednesday Comic Art & Animation Select Auction - bidstart 3/23, #322213
03/31/2022 - 03/31/2022, The Black Cat Collection and Pre-Code Horror Comics & Comic Art Showcase Auction, #40186
04/03/2022 - 04/04/2022, Comics, Animation and Art Weekly - bidstart 3/27, #122214
04/03/2022 - 04/03/2022, Movie Posters Weekly - bidstart 3/27, #162214
04/03/2022 - 04/03/2022, Sports Collectibles Weekly - Bidstart 3/20, #152214
04/03/2022 - 04/03/2022, World Paper Money Showcase Auction, #64166
04/05/2022 - 04/05/2022, US Currency Weekly - bidstart 3/29, #142214
04/05/2022 - 04/05/2022, Tuesday Video Games and Playing Cards - bidstart 3/29, #312214
04/05/2022 - 04/05/2022, World Currency Weekly - bidstart 3/29, #282214
04/06/2022 - 04/06/2022, Wednesday Comic Art & Animation Select Auction - bidstart 3/29, #322214
04/07/2022 - 04/10/2022, Comics and Comic Art Signature Auction, #7270
04/10/2022 - 04/11/2022, Comics, Animation and Art Weekly - bidstart 4/3, #122215
04/10/2022 - 04/10/2022, Movie Posters Weekly - bidstart 4/3, #162215
04/10/2022 - 04/10/2022, Sports Collectibles Weekly - Bidstart 3/27, #152215
04/12/2022 - 04/12/2022, US Currency Weekly - bidstart 4/5, #142215
04/12/2022 - 04/12/2022, Tuesday Video Games and Playing Cards - bidstart 4/5, #312215
04/12/2022 - 04/12/2022, World Currency Weekly - bidstart 4/5, #282215
04/13/2022 - 04/13/2022, Depth of Field: Photographs, #14184
04/13/2022 - 04/13/2022, Wednesday Comic Art & Animation Select Auction - bidstart 4/6, #322215
04/14/2022 - 04/14/2022, The David Hall T206 Collection, Part VIII, #50053
04/15/2022 - 04/15/2022, Illustration Art Signature Auction, #8069
04/16/2022 - 04/16/2022, Music Memorabilia Signature Auction, #7285
04/17/2022 - 04/18/2022, Comics, Animation and Art Weekly - bidstart 4/10, #122216
04/17/2022 - 04/17/2022, Movie Posters Weekly - bidstart 4/10, #162216
04/17/2022 - 04/17/2022, Sports Collectibles Weekly - Bidstart 4/3, #152216
04/19/2022 - 04/19/2022, US Currency Weekly - bidstart 4/12, #142216
04/19/2022 - 04/19/2022, Tuesday Video Games and Playing Cards - bidstart 4/12, #312216
04/19/2022 - 04/19/2022, World Currency Weekly - bidstart 4/12, #282216
04/20/2022 - 04/20/2022, Wednesday Comic Art & Animation Select Auction - bidstart 4/13, #322216
04/21/2022 - 04/22/2022, Paper Money Fair - Netherlands World Banknote Signature® Auction, #4036
04/23/2022 - 04/24/2022, Movie Posters Signature Auction, #7272
04/24/2022 - 04/25/2022, Comics, Animation and Art Weekly - bidstart 4/17, #122217
04/24/2022 - 04/24/2022, Sports Collectibles Weekly - Bidstart 4/10, #152217
04/26/2022 - 04/26/2022, US Currency Weekly - bidstart 4/19, #142217
04/26/2022 - 04/26/2022, Tuesday Video Games and Playing Cards - bidstart 4/19, #312217
04/26/2022 - 04/26/2022, World Currency Weekly - bidstart 4/19, #282217
04/27/2022 - 04/27/2022, Wednesday Comic Art & Animation Select Auction - bidstart 4/20, #322217
05/01/2022 - 05/02/2022, Comics, Animation and Art Weekly - bidstart 4/24, #122218
05/01/2022 - 05/01/2022, Movie Posters Weekly - bidstart 4/24, #162218
05/01/2022 - 05/01/2022, Sports Collectibles Weekly - Bidstart 4/17, #152218
05/03/2022 - 05/03/2022, US Currency Weekly - bidstart 4/26, #142218
05/03/2022 - 05/03/2022, Tuesday Video Games and Playing Cards - bidstart 4/26, #312218
05/03/2022 - 05/03/2022, World Currency Weekly - bidstart 4/26, #282218
05/04/2022 - 05/04/2022, Wednesday Comic Art & Animation Select Auction - bidstart 4/27, #322218
05/04/2022 - 05/07/2022, Central States US Currency, #3587
05/05/2022 - 05/05/2022, Tapping Into The Many Worlds Of Magic: The Gathering Showcase Auction, #42159
05/07/2022 - 05/07/2022, Treasures from the Melvin "Pete" Mark, Jr. Collection, #6256
05/08/2022 - 05/09/2022, Comics, Animation and Art Weekly - bidstart 5/1, #122219
05/08/2022 - 05/08/2022, Movie Posters Weekly - bidstart 5/1, #162219
05/10/2022 - 05/10/2022, US Currency Weekly - bidstart 5/3, #142219
05/10/2022 - 05/10/2022, Tuesday Video Games and Playing Cards - bidstart 5/3, #312219
05/10/2022 - 05/10/2022, World Currency Weekly - bidstart 5/3, #282219
05/11/2022 - 05/11/2022, Wednesday Comic Art & Animation Select Auction - bidstart 5/4, #322219
05/11/2022 - 05/11/2022, Depth of Field: Photographs, #14185
05/12/2022 - 05/12/2022, The Palos Verdes Collection Showcase Auction, #40200
05/12/2022 - 05/14/2022, Sports Catalog Auction, #50054
05/15/2022 - 05/16/2022, Comics, Animation and Art Weekly - bidstart 5/8, #122220
05/15/2022 - 05/15/2022, Movie Posters Weekly - bidstart 5/8, #162220
05/15/2022 - 05/15/2022, Sports Collectibles Weekly - Bidstart 5/1, #152220
05/15/2022 - 05/15/2022, Music Memorabilia Signature Auction, #41165
05/17/2022 - 05/17/2022, US Currency Weekly - bidstart 5/10, #142220
05/17/2022 - 05/17/2022, Tuesday Video Games and Playing Cards - bidstart 5/10, #312220
05/17/2022 - 05/17/2022, World Currency Weekly - bidstart 5/10, #282220
05/18/2022 - 05/18/2022, Wednesday Comic Art & Animation Select Auction - bidstart 5/11, #322220
05/21/2022 - 05/22/2022, Disneyland - The Auction, #7258
05/22/2022 - 05/23/2022, Comics, Animation and Art Weekly - bidstart 5/15, #122221
05/22/2022 - 05/22/2022, Movie Posters Weekly - bidstart 5/15, #162221
05/22/2022 - 05/22/2022, Sports Collectibles Weekly - Bidstart 5/8, #152221
05/24/2022 - 05/24/2022, US Currency Weekly - bidstart 5/17, #142221
05/24/2022 - 05/24/2022, Tuesday Video Games and Playing Cards - bidstart 5/17, #312221
05/24/2022 - 05/24/2022, World Currency Weekly - bidstart 5/17, #282221
05/24/2022 - 05/24/2022, Photographs, #8071
05/25/2022 - 05/25/2022, Wednesday Comic Art & Animation Select Auction - bidstart 5/18, #322221
05/26/2022 - 05/26/2022, Jim Davis: The Art of Garfield Showcase Auction, #40188
05/29/2022 - 05/30/2022, Comics, Animation and Art Weekly - bidstart 5/22, #122222
05/29/2022 - 05/29/2022, Movie Posters Weekly - bidstart 5/22, #162222
05/29/2022 - 05/29/2022, Sports Collectibles Weekly - Bidstart 5/15, #152222
05/29/2022 - 05/29/2022, Movie Posters Showcase Auction, #42154
05/31/2022 - 05/31/2022, US Currency Weekly - bidstart 5/24, #142222
05/31/2022 - 05/31/2022, Tuesday Video Games and Playing Cards - bidstart 5/24, #312222
05/31/2022 - 05/31/2022, World Currency Weekly - bidstart 5/24, #282222
06/01/2022 - 06/01/2022, Wednesday Comic Art & Animation Select Auction - bidstart 5/25, #322222
06/02/2022 - 06/02/2022, The Spider-Steve Showcase Auction, #40193
06/02/2022 - 06/02/2022, The David Hall T206 Collection Part IX, #50055
06/02/2022 - 06/03/2022, Space Exploration, #6252
06/04/2022 - 06/04/2022, Historical Manuscripts, #6247
06/05/2022 - 06/06/2022, Comics, Animation and Art Weekly - bidstart 5/29, #122223
06/05/2022 - 06/05/2022, Movie Posters Weekly - bidstart 5/29, #162223
06/05/2022 - 06/05/2022, Sports Collectibles Weekly - Bidstart 5/22, #152223
06/07/2022 - 06/07/2022, US Currency Weekly - bidstart 5/31, #142223
06/07/2022 - 06/07/2022, Tuesday Video Games and Playing Cards - bidstart 5/31, #312223
06/07/2022 - 06/07/2022, World Currency Weekly - bidstart 5/31, #282223
06/08/2022 - 06/08/2022, Wednesday Comic Art & Animation Select Auction - bidstart 6/1, #322223
06/09/2022 - 06/09/2022, Rare Pulps and Collectibles Showcase Auction, #40189
06/12/2022 - 06/13/2022, Comics, Animation and Art Weekly - bidstart 6/5, #122224
06/12/2022 - 06/12/2022, Movie Posters Weekly - bidstart 6/5, #162224
06/12/2022 - 06/12/2022, Sports Collectibles Weekly - Bidstart 5/28, #152224
06/14/2022 - 06/14/2022, US Currency Weekly - bidstart 6/7, #142224
06/14/2022 - 06/14/2022, Tuesday Video Games and Playing Cards - bidstart 6/7, #312224
06/14/2022 - 06/14/2022, World Currency Weekly - bidstart 6/7, #282224
06/15/2022 - 06/15/2022, Wednesday Comic Art & Animation Select Auction - bidstart 6/8, #322224
06/19/2022 - 06/20/2022, Comics, Animation and Art Weekly - bidstart 6/12, #122225
06/19/2022 - 06/19/2022, Movie Posters Weekly - bidstart 6/12, #162225
06/19/2022 - 06/19/2022, Sports Collectibles Weekly - Bidstart 6/5, #152225
06/21/2022 - 06/21/2022, US Currency Weekly - bidstart 6/14, #142225
06/21/2022 - 06/21/2022, Tuesday Video Games and Playing Cards - bidstart 6/14, #312225
06/21/2022 - 06/21/2022, World Currency Weekly - bidstart 6/14, #282225
06/22/2022 - 06/22/2022, Wednesday Comic Art & Animation Select Auction - bidstart 6/15, #322225
06/26/2022 - 06/27/2022, Comics, Animation and Art Weekly - bidstart 6/19, #122226
06/26/2022 - 06/26/2022, Movie Posters Weekly - bidstart 6/19, #162226
06/26/2022 - 06/26/2022, Sports Collectibles Weekly - Bidstart 6/12, #152226
06/28/2022 - 06/28/2022, US Currency Weekly - bidstart 6/21, #142226
06/28/2022 - 06/28/2022, Tuesday Video Games and Playing Cards - bidstart 6/21, #312226
06/28/2022 - 06/28/2022, World Currency Weekly - bidstart 6/21, #282226
06/29/2022 - 06/29/2022, Wednesday Comic Art & Animation Select Auction - bidstart 6/22, #322226

  • <center><b>Swann Auction Galleries<br>Graphic Design<br>May 19, 2022</b>
    <b>Swann May 19:</b> Adolphe Mouron Cassandre, <i>Triplex,</i> pencil maquette, 1930. $25,000 to $35,000.
    <b>Swann May 19:</b> Claude Fayette Brandon, <i>The Chap Book,</i> circa 1895. $3,000 to $4,000.
    <b>Swann May 19:</b> Various Artists, a complete set of <i>Das Plakat,</i> set of 10 hardcover volumes, 1912-21. $25,000 to $35,000.
    <b>Swann May 19:</b> Javier Gómez Acebo & Máximo Viejo Santamarta, <i>San Sebastian / XI Circuitto Automovilista,</i> 1935. $10,000 to $15,000.
    <b>Swann May 19:</b> Ephraim Moses Lilien, <i>Berliner Tageblatt,</i> circa 1899. $12,000 to $18,000.
  • <b><center>Forum Auctions<br>Fine Books, Manuscripts and Works on Paper<br>26th May 2022</b>
    <b>Forum, May 26:</b> Birds.- Gould (John). <i>The Birds of Great Britain,</i> 5 vol., first edition, [1862-]1873. £40,000 to £60,000.
    <b>Forum, May 26:</b> Canadiana.- Cockburn (Maj. Gen. James Pattison, 1779-1847), After. [Six Landscape of Quebec City and Six Views of Niagara Falls], 2 suites in 1 vol., comprising 12 aquatints, 1833. £30,000 to £40,000.
    <b>Forum, May 26:</b> Joyce (James). <i>Ulysses,</i> number 218 of 150 copies on verge d'arches, Paris, Shakespeare & Company, 1922. £15,000 to £20,000.
    <b><center>Forum Auctions<br>Fine Books, Manuscripts and Works on Paper<br>26th May 2022</b>
    <b>Forum, May 26:</b> Rowling (J.K.) <i>Harry Potter and the Philosopher's Stone,</i> first paperback edition, signed by the author, 1997. £15,000 to £20,000.
    <b>Forum, May 26:</b> Du Maurier (Daphne). <i>Rebecca,</i> first edition, signed presentation inscription from the author to her governess, 1938. £12,000 to £18,000.
    <b>Forum, May 26:</b> Magna Carta.- An exact copy of King John's Great Charter of 1215, transcribed from the fire damaged but legible manuscript in the Cottonian Library, British Library, J. Pine, 1733. £10,000 to £15,000.
    <b><center>Forum Auctions<br>Fine Books, Manuscripts and Works on Paper<br>26th May 2022</b>
    <b>Forum, May 26:</b> Woolf (Virginia). <i>Mrs Dalloway,</i> first edition, Hogarth Press, 1925. £10,000 to £15,000.
    <b>Forum, May 26:</b> Tudor exiles opposed to the Marian regime.- Mary I (Queen of England) Letter signed "Marye the Quene" to Lord Paget, signed at head, titled at head "By the King and Quene", 1556. £8,000 to £10,000.
    <b>Forum, May 26:</b> America.- Newfoundland.- Whitbourne (Sir Richard). <i>A discourse and discouery of Nevv-found-land…,</i> second edition, By Felix Kingston, 1622. £6,000 to £8,000.
    <b><center>Forum Auctions<br>Fine Books, Manuscripts and Works on Paper<br>26th May 2022</b>
    <b>Forum, May 26:</b> Cervantès Saavedra (Miguel de). <i>El Ingenioso Hidalgo Do Quixote de la Mancha,</i> 4 vol., Madrid, Por Don Joaquin Ibarra, 1780. £5,000 to £7,000.
    <b>Forum, May 26:</b> Stubbs (George). <i>The Anatomy of the Horse,</i> first edition, first issue, Printed by J. Purser, for the Author, 1766. £6,000 to £8,000.
    <b>Forum, May 26:</b> Cardiology.- Lower (Richard). <i>Tractatus de Corde item De Motu & Colore Sanguinus et Chyli in cum Transitu,</i> first edition, 1669. £5,000 to £7,000.
  • <center><b>Ketterer Rare Books<br>Auction on May 30</b>
    <b>Ketterer Rare Books, May 30:</b><br>Initial A on vellum, Cologne around 1300. Est: €25,000
    <b>Ketterer Rare Books, May 30:</b><br>J. Androuet du Cerceau, <i> Bastiments de France,</i> 1607. Est: €12,000
    <b>Ketterer Rare Books, May 30:</b><br>E. Cerillo, <i>Dipinti murali di Pompei,</i> 1886. Est: €2,500
    <center><b>Ketterer Rare Books<br>Auction on May 30</b>
    <b>Ketterer Rare Books, May 30:</b><br>L. de Austria, <i>Compilatio de astrorum scientia,</i> 1489. Est: €9,000
    <b>Ketterer Rare Books, May 30:</b><br>B. Besler, <i>Hortus Eystettensis,</i> around 1750. Est: €50,000
    <b>Ketterer Rare Books, May 30:</b><br><i>PAN,</i> 1895-1900. Est: €15,000
    <center><b>Ketterer Rare Books<br>Auction on May 30</b>
    <b>Ketterer Rare Books, May 30:</b><br>F. Colonna, <i>Hypnerotomachia Poliphili,</i> 1545. Est: €40,000
    <b>Ketterer Rare Books, May 30:</b><br>F. Schiller, <i>Die Räuber,</i> 1781. Est: €12,000
    <b>Ketterer Rare Books, May 30:</b><br>J. Albers, <i>Formulation : Articulation,</i> 1972. Est: €18,000
    <center><b>Ketterer Rare Books<br>Auction on May 30</b>
    <b>Ketterer Rare Books, May 30:</b><br>G. B. Ramusio, <i>Delle navigationi e viaggi,</i> 1556-1613. Est: €14,000
    <b>Ketterer Rare Books, May 30:</b><br>M. Wied Neuwied, <i>Reise in das Innere Nord-America,</i> 1839-41. Est: €12,000
    <b>Ketterer Rare Books, May 30:</b><br>E. Paolozzi, <i>Bunk,</i> 1972. Est: €25,000
  • <b><center>Sotheby’s<br> The Library of Henry Rogers<br>Broughton, 2nd Baron Fairhaven<br>Part I<br>18 May 2022</b>
    <b>Sotheby’s, May 18:</b> John James Audubon and James Bachman. <i>The Viviparous Quadrupeds of North America.</i> New York: J.J. Audubon, 1845-1848. £150,000 to £250,000.
    <b>Sotheby’s, May 18:</b> Thomas and William Daniell. <i>Oriental Scenery,</i> London, 1795-1807 [but 1841], 6 parts in 3 volumes, folio. £150,000 to £200,000.
    <b>Sotheby’s, May 18:</b> Mark Catesby. <i>The natural history of Carolina, Florida and the Bahama Islands...</i> London, 1731-1743, 2 volumes. £100,000 to £150,000.
    <b>Sotheby’s, May 18:</b> Gould and Lear. <i>A monograph of the Ramphastidae,</i> 1854; <i>Illustrations of the family of Psittacidae,</i> 1832. £60,000 to £90,000.